#timestamp,LO_Frequency,Hit,StdDev 
1620133215.3,286046996.2,N
1620133235.1,286046997.5,N
1620133255.9,286046997.8,N
1620133275.7,286046997.9,N
1620133295.5,286046997.6,N
1620133315.4,286046995.7,N
1620133335.2,286046993.8,Y
1620133355.1,286046997.3,P
1620133356.0,286046997.3,P
1620133375.8,286046997.5,P
1620133395.7,286046996.2,Y
1620133415.5,286046998.1,P
1620133435.3,286046998.4,P
1620133455.2,286046999.4,N
1620133475.9,286046996.6,Y
1620133495.7,286046998.8,P
1620133515.6,286046998.8,P
1620133535.4,286046999.3,P
1620133555.3,286047001.2,Y
1620133575.1,286047002.0,P
1620133576.0,286047002.0,N
1620133595.8,286047004.4,N
1620133615.7,286047001.5,N
1620133635.5,286047000.0,N
1620133655.3,286047000.1,N
1620133675.2,286047000.2,N
1620133695.0,286047000.2,N
1620133695.9,286047000.2,N
1620133715.8,286046999.9,N
1620133735.6,286046999.8,N
1620133755.4,286047002.8,N
1620133775.3,286047003.3,N
1620133795.1,286047001.5,N
1620133815.8,286047002.4,N
1620133835.7,286047002.0,N
1620133855.5,286047002.3,N
1620133875.3,286046998.2,N
1620133895.2,286046998.8,N
1620133915.0,286046999.1,N
1620133915.9,286046999.1,N
1620133935.8,286046999.0,N
1620133955.6,286046998.3,N
1620133975.4,286046999.4,N
1620133995.3,286046997.0,N
1620134015.1,286046997.2,N
1620134035.9,286046996.6,N
1620134055.7,286046997.2,N
1620134075.5,286046995.4,N
1620134095.4,286046997.4,N
1620134115.2,286046998.0,N
1620134135.0,286046996.2,N
1620134135.9,286046996.2,N
1620134155.8,286046995.9,N
1620134175.6,286046993.6,Y
1620134195.5,286046995.4,P
1620134215.3,286046995.9,N
1620134235.1,286046996.0,N
1620134255.9,286046995.0,Y
1620134275.7,286047000.7,P
1620134295.5,286046998.1,N
1620134315.4,286046998.2,N
1620134335.2,286047001.0,N
1620134355.1,286046999.8,N
1620134356.0,286046999.8,N
1620134375.8,286047002.6,N
1620134395.6,286047001.1,N
1620134415.5,286046998.5,N
1620134435.3,286047000.2,N
1620134455.1,286047000.2,N
1620134475.9,286047001.0,N
1620134495.7,286046998.1,N
1620134515.6,286046996.6,N
1620134535.4,286046997.1,N
1620134555.2,286046995.3,N
1620134575.1,286046997.4,N
1620134576.0,286046997.4,N
1620134595.8,286046996.7,N
1620134615.6,286046996.6,N
1620134635.5,286046998.7,N
1620134655.3,286046998.7,N
1620134675.2,286046999.6,N
1620134695.9,286046994.9,N
1620134715.7,286046996.2,N
1620134735.6,286046993.7,Y
1620134755.4,286046995.3,P
1620134775.2,286046997.4,N
1620134795.1,286046996.9,N
1620134796.0,286046996.9,N
1620134815.8,286046997.1,N
1620134835.7,286046996.7,Y
1620134855.5,286047000.4,P
1620134875.3,286047002.8,N
1620134895.2,286046999.9,N
1620134915.0,286047000.0,N
1620134915.9,286047000.0,N
1620134935.7,286047002.4,N
1620134955.6,286047002.7,N
1620134975.4,286046999.9,N
1620134995.3,286047002.4,N
1620135015.1,286047001.3,N
1620135016.0,286047001.3,N
1620135035.8,286047004.4,N
1620135055.7,286047001.9,N
1620135075.5,286047002.6,N
1620135095.3,286046999.8,N
1620135115.2,286047000.3,N
1620135135.0,286047000.3,N
1620135135.9,286047000.3,N
1620135155.8,286047002.2,N
1620135175.6,286047001.6,N
1620135195.4,286047001.5,N
1620135215.3,286047001.8,N
1620135235.1,286047000.3,N
1620135255.9,286047000.0,N
1620135275.7,286046999.9,N
1620135295.5,286047000.1,N
1620135315.4,286047004.4,Y
1620135335.2,286047001.3,P
1620135355.0,286047002.3,P
1620135355.9,286047002.3,P
1620135375.8,286047002.5,Y
1620135395.6,286046999.9,P
1620135415.5,286047001.4,N
1620135435.3,286047001.5,N
1620135455.1,286047004.2,Y
1620135475.9,286047000.5,P
1620135495.7,286046998.8,P
1620135515.6,286046997.7,N
1620135535.4,286046997.5,N
1620135555.2,286046997.5,N
1620135575.1,286046997.0,N
1620135576.0,286046997.0,N
1620135595.8,286046996.5,N
1620135615.7,286046999.5,N
1620135635.5,286046997.6,N
1620135655.3,286046998.1,N
1620135675.2,286047001.0,N
1620135695.0,286047000.7,N
1620135695.9,286047000.7,N
1620135715.8,286047001.2,N
1620135735.6,286046998.6,N
1620135755.4,286046998.5,N
1620135775.3,286046997.4,N
1620135795.1,286046997.9,N
1620135815.8,286046995.3,Y
1620135835.7,286046996.7,P
1620135855.5,286046999.5,N
1620135875.4,286046996.8,N
1620135895.2,286047000.5,N
1620135915.0,286047000.3,N
1620135915.9,286047000.3,N
1620135935.8,286047000.2,N
1620135955.6,286046998.8,N
1620135975.4,286046998.7,N
1620135995.3,286047000.8,N
1620136015.1,286046997.2,N
1620136035.9,286046998.0,N
1620136055.7,286046997.3,N
1620136075.5,286046997.7,N
1620136095.4,286046999.1,N
1620136115.2,286046996.9,N
1620136135.0,286046999.4,N
1620136136.0,286046999.4,N
1620136155.8,286047001.0,N
1620136175.6,286047000.8,N
1620136195.5,286046999.0,N
1620136215.3,286046999.1,N
1620136235.1,286046998.8,N
1620136255.9,286046998.7,N
1620136275.7,286046998.3,N
1620136295.5,286047000.7,N
1620136315.4,286047000.7,N
1620136335.2,286047000.0,N
1620136355.1,286047000.6,N
1620136386.0,286046998.1,E
1620136395.0,286046999.7,N
1620136395.9,286046999.7,P
1620136415.8,286047001.4,P
1620136435.6,286047001.9,N
1620136455.4,286047001.6,N
1620136475.3,286047002.8,N
1620136495.1,286046999.7,N
1620136515.9,286047003.7,Y
1620136535.7,286047000.1,P
1620136555.5,286047000.7,N
1620136575.4,286047001.0,N
1620136595.2,286046998.3,Y
1620136615.0,286047000.3,P
1620136615.9,286047000.3,N
1620136635.8,286047002.2,P
1620136655.6,286047001.4,N
1620136675.5,286047001.9,N
1620136695.3,286047002.1,N
1620136715.1,286047000.0,N
1620136735.9,286047001.7,N
1620136755.7,286047002.2,N
1620136775.5,286047001.6,N
1620136795.4,286047002.8,Y
